Regional Weather Roundup
Issued by NWS Lake Charles, LA

Home | Current Version | Previous Version | Text Only | Print | Product List | Glossary On
Versions: 1 2 3 4 5 6 7 8 9 10 11 12 13 14 15 16 17 18 19 20 21 22 23 24 25 26 27 28 29 30 31 32 33 34 35 36 37 38 39 40 41 42 43 44 45 46 47 48 49 50
000
ASUS44 KLCH 251910
RWRLCH
RWRLCH
REGIONAL WEATHER ROUNDUP
NATIONAL WEATHER SERVICE LAKE CHARLES LA
200 PM CDT FRI JUL 25 2014

Note: "fair" indicates few or no clouds below 12,000 feet with no
significant weather and/or obstructions to visibility.


ACROSS SOUTHEAST TEXAS

CITY           SKY/WX    TMP DP  RH WIND       PRES   REMARKS
BEAUMONT       PTSUNNY   89  74  60 VRB5      30.01F
BEAUMONT CITY    N/A     89  75  63 SW5       30.02S
ORANGE         CLEAR     90  73  55 W3        30.02F
JASPER         SUNNY     89  70  52 S5        30.03F
$$

ACROSS CENTRAL LOUISIANA

CITY           SKY/WX    TMP DP  RH WIND       PRES   REMARKS
LEESVILLE      CLOUDY    88  72  58 NW7       30.01F
FULLERTON      MOCLDY    90  73  57 VRB3      29.98F
ALEXANDRIA INT SUNNY     91  72  53 W6        29.98F
ESLER FIELD    MOSUNNY   94  71  47 VRB5      30.00F HX 101
DERIDDER         N/A     90  73  56 CALM      30.03F
OAKDALE        PTCLDY    91  74  56 SW6       30.00F HX 101
OPELOUSAS        N/A     90  75  61 CALM      30.00F
$$

ACROSS SOUTHWEST AND SOUTH CENTRAL LOUISIANA

CITY           SKY/WX    TMP DP  RH WIND       PRES   REMARKS
SULPHUR        CLOUDY    91  76  61 CALM      30.01F HX 101
LAKE CHARLES   PTSUNNY   90  75  61 SW7       30.00F HX 100
CHENNAULT INT  MOSUNNY   90  72  55 CALM      30.01F
CAMERON PHI    CLEAR     86  77  74 SW10      30.02F
DEQUINCY       MOCLDY    88  74  62 CALM      30.01F
JENNINGS       MOCLDY    87  76  69 W6        30.01F
LAFAYETTE      CLOUDY    89  73  59 W7        30.01F
NEW IBERIA     PTSUNNY   91  75  59 MISG      30.02F HX 101
ABBEVILLE        N/A     90  74  58 SW7       30.01F
PATTERSON      MOSUNNY   91  75  59 W7        30.06F HX 102
SALT POINT       N/A     90  76  63 VRB7      30.02F HX 101
$$

SELECTED SITES ACROSS THE REGION

CITY           SKY/WX    TMP DP  RH WIND       PRES   REMARKS
HOUSTON BUSH   MOSUNNY   93  70  46 VRB3      30.00F
HOUSTON HOBBY  MOSUNNY   90  70  51 SW8       30.00F
GALVESTON      MOSUNNY   90  74  59 S8        30.02F
COLLEGE STAT   MOSUNNY   91  71  51 S6        30.01F
CONROE         MOSUNNY   90  71  53 VRB5      30.02F
HUNTSVILLE     MOSUNNY   90  70  51 CALM      30.02F
LUFKIN         MOSUNNY   92  71  50 W6        30.02F
SHREVEPORT     PTSUNNY   89  72  56 W8        30.00F
MONROE         MOSUNNY   90  72  55 VRB3      30.01F
NATCHEZ MS     MOSUNNY   88  73  62 CALM      30.02F
BATON ROUGE    MOSUNNY   91  72  53 SW7       30.01F
N.O. INTL ARPT PTSUNNY   89  73  59 SW6       30.01F
SLIDELL        SUNNY     90  73  57 SW7       30.00F
$$

MARINE REPORTS

STATION/POSITION TIME  TEMP    WIND        PRES    VSBY  WAVE
                       AIR SEA DIR/SP/G                  HT/PER
                 (UTC) (F)     (DEG/KT/KT) (MB)    (MI)  (FT/S)
BUOY 30 S HIGH I NOT AVBL
SEA RIM ST PARK  1900   85     200/  8/  9 1016.7F
PORT ARTHUR      1900      87  150/  4/  6 1016.4F
SABINE PASS N    1900   88 87  220/  3/ 10 1016.5F
TEXAS POINT      1900   85 87  210/ 10/ 12 1016.6F
CALCASIEU PASS   1900   85 88  250/  9/ 11 1017.6F
LK CHARLES BEACH 1900   89 83              1016.7F
MARSH ISLAND     1800   85     260/  8/ 11   N/A
FRESH WATER LOCK 1900   85 88  200/  9/ 11 1016.6F
AMERADA PASS     1900   85 85  250/  4/  9 1016.9F
$$



USA.gov is the U.S. government's official web portal to all federal, state and local government web resources and services.